Location: Ikejouine
(32.5142°N, 5.4699°W)
Time: 17:17:41
(UTC+00:00)

Ariane Rocket - Pass Details

Date: 09 April 2020
Orbit: 761 x 769 km, 98.7° (Epoch: 28 May)

Event Time Altitude Azimuth Distance (km) Brightness Sun altitude
Exits shadow 20:02:31 - 170° (S) 2,918 5.7 -16.0°
Reaches altitude 10° 20:04:05 10° 172° (S) 2,292 5.2 -16.3°
Maximum altitude 20:09:08 75° 257° (WSW) 791 3.1 -17.3°
Drops below altitude 10° 20:14:12 10° 343° (NNW) 2,300 6.0 -18.3°
Sets 20:16:30 0° 345° (NNW) 3,229 6.8 -18.7°
